Location: Jalan Sepang
(2.8072°N, 101.8021°E)
Time: 04:51:35
(UTC+00:00)

SL-16 R/B - Pass Details

Date: 15 May 2026
Orbit: 984 x 1007 km, 99.8° (Epoch: 7 June)

Event Time Altitude Azimuth Distance (km) Brightness Sun altitude
Rises 20:55:16 0° 146° (SE) 3,730 5.7 -30.3°
Reaches altitude 10° 20:58:02 10° 136° (SE) 2,779 5.1 -29.7°
Maximum altitude 21:03:28 32° 75° (ENE) 1,656 4.2 -28.4°
Drops below altitude 10° 21:08:53 10° 15° (NNE) 2,770 5.3 -27.2°
Sets 21:11:37 0° 5° (N) 3,715 5.9 -26.6°
